Provincetown, MA

11:38 AM EDT on September 22, 2017 (GMT -0400)
Provincetown Municipal

Weather History for KPVC - October, 2012

Change the Weather History Date:

Monday, October 22, 2012

  Actual Average Record
Temperature  
Mean Temperature 55 °F -  
Max Temperature 62 °F 55 °F 69 °F (2007)
Min Temperature 48 °F 44 °F 32 °F (2005)
Degree Days  
Heating Degree Days 10    
Growing Degree Days 5 (Base 50)    
Moisture  
Dew Point 45 °F    
Average Humidity 67    
Maximum Humidity 87    
Minimum Humidity 52    
Precipitation  
Precipitation 0.00 in - - ()
Sea Level Pressure  
Sea Level Pressure 29.92 in    
Wind  
Wind Speed 12 mph (WNW)    
Max Wind Speed 18 mph    
Max Gust Speed 24 mph    
Visibility 10 miles    
Events      
Averages and records for this station are not official NWS values.
T = Trace of Precipitation, MM = Missing Value Source: NWS Daily Summary

Daily Weather History Graph

Daily Weather History Graph

Search for Another Location

Airport or City:

Trip Planner

Search our weather history database for the weather conditions in past years. The results will help you decide how hot, cold, wet, or windy it might be!

Date:

Astronomy

Oct. 22, 2012 Rise Set
Actual Time 7:02 AM EDT 5:47 PM EDT
Civil Twilight 6:33 AM EDT 6:16 PM EDT
Nautical Twilight 6:00 AM EDT 6:48 PM EDT
Astronomical Twilight 5:28 AM EDT 7:21 PM EDT
Moon 2:00 PM EDT No Moon Set
Length of Visible Light 11h 42m
Length of Day
10h 45m
First Quarter, 56% of the Moon is Illuminated
Oct 22
First Quarter
Oct 29
Full
Nov 6
Last Quarter
Nov 13
New
Nov 20
First Quarter

Hourly Weather History & Observations

Time (EDT) Temp. Dew Point Humidity Pressure Visibility Wind Dir Wind Speed Gust Speed Precip Events Conditions
12:15 AM 55.4 °F 44.6 °F 67% 29.89 in 10.0 mi West 11.5 mph - N/A   Clear
12:55 AM 53.6 °F 44.6 °F 72% 29.89 in 10.0 mi West 15.0 mph 19.6 mph N/A   Clear
1:15 AM 53.6 °F 44.6 °F 72% 29.89 in 10.0 mi West 12.7 mph - N/A   Clear
1:55 AM 53.6 °F 44.6 °F 72% 29.89 in 10.0 mi West 16.1 mph 19.6 mph N/A   Clear
2:15 AM 53.6 °F 44.6 °F 72% 29.89 in 10.0 mi West 15.0 mph - N/A   Clear
2:35 AM 53.6 °F 44.6 °F 72% 29.89 in 10.0 mi West 12.7 mph 18.4 mph N/A   Clear
2:55 AM 53.6 °F 44.6 °F 72% 29.89 in 10.0 mi West 12.7 mph - N/A   Mostly Cloudy
3:15 AM 53.6 °F 44.6 °F 72% 29.89 in 10.0 mi West 13.8 mph 18.4 mph N/A   Partly Cloudy
3:35 AM 53.6 °F 44.6 °F 72% 29.89 in 10.0 mi West 12.7 mph 20.7 mph N/A   Clear
3:55 AM 53.6 °F 44.6 °F 72% 29.89 in 10.0 mi West 15.0 mph 19.6 mph N/A   Clear
4:15 AM 53.6 °F 44.6 °F 72% 29.89 in 10.0 mi West 12.7 mph - N/A   Clear
4:55 AM 53.6 °F 44.6 °F 72% 29.89 in 10.0 mi West 15.0 mph 21.9 mph N/A   Partly Cloudy
5:15 AM 53.6 °F 44.6 °F 72% 29.89 in 10.0 mi West 16.1 mph 21.9 mph N/A   Scattered Clouds
5:35 AM 53.6 °F 42.8 °F 67% 29.90 in 10.0 mi West 16.1 mph 24.2 mph N/A   Partly Cloudy
5:55 AM 53.6 °F 44.6 °F 72% 29.90 in 10.0 mi West 18.4 mph 23.0 mph N/A   Clear
6:15 AM 53.6 °F 44.6 °F 72% 29.90 in 10.0 mi West 15.0 mph 21.9 mph N/A   Clear
6:35 AM 53.6 °F 44.6 °F 72% 29.91 in 10.0 mi West 16.1 mph 20.7 mph N/A   Clear
6:55 AM 51.8 °F 44.6 °F 76% 29.91 in 10.0 mi West 16.1 mph 20.7 mph N/A   Clear
7:15 AM 51.8 °F 44.6 °F 76% 29.92 in 10.0 mi West 12.7 mph 19.6 mph N/A   Clear
8:15 AM 53.6 °F 44.6 °F 72% 29.93 in 10.0 mi West 13.8 mph 19.6 mph N/A   Clear
8:55 AM 53.6 °F 44.6 °F 72% 29.94 in 10.0 mi West 12.7 mph 18.4 mph N/A   Clear
9:15 AM 55.4 °F 46.4 °F 72% 29.94 in 10.0 mi West 17.3 mph 21.9 mph N/A   Clear
9:35 AM 55.4 °F 46.4 °F 72% 29.94 in 10.0 mi WNW 13.8 mph 21.9 mph N/A   Clear
9:55 AM 57.2 °F 44.6 °F 63% 29.94 in 10.0 mi WNW 15.0 mph 20.7 mph N/A   Clear
10:15 AM 57.2 °F 46.4 °F 67% 29.94 in 10.0 mi WNW 16.1 mph 20.7 mph N/A   Clear
10:35 AM 59.0 °F 46.4 °F 63% 29.93 in 10.0 mi West 15.0 mph - N/A   Clear
10:55 AM 59.0 °F 46.4 °F 63% 29.93 in 10.0 mi West 13.8 mph - N/A   Clear
11:15 AM 60.8 °F 44.6 °F 55% 29.93 in 10.0 mi WNW 12.7 mph - N/A   Clear
11:35 AM 60.8 °F 44.6 °F 55% 29.92 in 10.0 mi WNW 15.0 mph 20.7 mph N/A   Clear
11:55 AM 60.8 °F 46.4 °F 59% 29.92 in 10.0 mi WNW 12.7 mph 19.6 mph N/A   Clear
12:15 PM 60.8 °F 46.4 °F 59% 29.92 in 10.0 mi WNW 11.5 mph 18.4 mph N/A   Clear
12:35 PM 60.8 °F 46.4 °F 59% 29.91 in 10.0 mi NW 11.5 mph 18.4 mph N/A   Clear
12:55 PM 62.6 °F 46.4 °F 55% 29.91 in 10.0 mi NW 11.5 mph 20.7 mph N/A   Clear
1:15 PM 62.6 °F 46.4 °F 55% 29.91 in 10.0 mi NW 11.5 mph - N/A   Clear
1:35 PM 62.6 °F 46.4 °F 55% 29.91 in 10.0 mi NW 9.2 mph - N/A   Clear
1:55 PM 62.6 °F 46.4 °F 55% 29.90 in 10.0 mi NW 10.4 mph 17.3 mph N/A   Clear
2:15 PM 62.6 °F 44.6 °F 52% 29.90 in 10.0 mi NW 10.4 mph - N/A   Clear
2:55 PM 62.6 °F 46.4 °F 55% 29.90 in 10.0 mi NW 6.9 mph - N/A   Clear
3:15 PM 62.6 °F 44.6 °F 52% 29.89 in 10.0 mi NW 6.9 mph - N/A   Clear
3:35 PM 62.6 °F 44.6 °F 52% 29.89 in 10.0 mi NW 6.9 mph - N/A   Clear
4:55 PM 60.8 °F 44.6 °F 55% 29.90 in 10.0 mi WNW 3.5 mph - N/A   Clear
5:55 PM 57.2 °F 46.4 °F 67% 29.92 in 10.0 mi WNW 5.8 mph - N/A   Clear
6:15 PM 59.0 °F 42.8 °F 55% 29.92 in 10.0 mi WNW 9.2 mph - N/A   Clear
6:55 PM 57.2 °F 46.4 °F 67% 29.94 in 10.0 mi WNW 5.8 mph - N/A   Clear
7:35 PM 51.8 °F 44.6 °F 76% 29.95 in 10.0 mi Calm Calm - N/A   Clear
7:55 PM 48.2 °F 44.6 °F 87% 29.95 in 10.0 mi Calm Calm - N/A   Clear
8:15 PM 51.8 °F 44.6 °F 76% 29.95 in 10.0 mi WSW 3.5 mph - N/A   Clear
8:35 PM 51.8 °F 44.6 °F 76% 29.96 in 10.0 mi West 4.6 mph - N/A   Clear
9:15 PM 57.2 °F 46.4 °F 67% 29.97 in 10.0 mi NW 6.9 mph - N/A   Clear
9:55 PM 55.4 °F 48.2 °F 77% 29.98 in 10.0 mi North 3.5 mph - N/A   Clear
10:15 PM 55.4 °F 48.2 °F 77% 29.98 in 10.0 mi NNW 9.2 mph - N/A   Clear
10:35 PM 55.4 °F 46.4 °F 72% 29.98 in 10.0 mi North 3.5 mph - N/A   Clear
10:55 PM 53.6 °F 46.4 °F 77% 29.98 in 10.0 mi WNW 6.9 mph - N/A   Clear
11:15 PM 55.4 °F 48.2 °F 77% 29.98 in 10.0 mi WNW 8.1 mph - N/A   Clear
11:35 PM 55.4 °F 46.4 °F 72% 29.98 in 10.0 mi WNW 12.7 mph - N/A   Clear